This is the latest recevied weather packets stored in our database for station/object VA2EYZ-13. If no packets are shown the sender has not sent any weather packets the latest 10 day(s).
| Time | Temp. | Humidity | Pressure | Rain* | Wind** | Luminosity | Snow |
|---|---|---|---|---|---|---|---|
| 1777743833 | 9.44° C | 35% | 1012.1 hPa | - | - | - | - |
| 1777742335 | 9.44° C | 38% | 1011 hPa | - | - | - | - |
| 1777737839 | 8.89° C | 40% | 1012.5 hPa | - | - | - | - |
| 1777736940 | 8.89° C | 41% | 1012 hPa | - | - | - | - |
| 1777734947 | 8.33° C | 43% | 1012 hPa | - | - | - | - |
| 1777734239 | 8.33° C | 43% | 1012.8 hPa | - | - | - | - |
| 1777733672 | 7.78° C | 43% | 1012.8 hPa | - | - | - | - |
| 1777733339 | 7.78° C | 43% | 1013 hPa | - | - | - | - |
| 1777732762 | 7.22° C | 44% | 1013 hPa | - | - | - | - |
| 1777729311 | 7.22° C | 42% | 1013 hPa | - | - | - | - |
| 1777727039 | 7.22° C | 42% | 1013.6 hPa | - | - | - | - |
| 1777724110 | 7.22° C | 41% | 1013.6 hPa | - | - | - | - |
| 1777723439 | 7.22° C | 41% | 1013 hPa | - | - | - | - |
| 1777722006 | 7.22° C | 40% | 1013 hPa | - | - | - | - |
| 1777721003 | 7.22° C | 40% | 1013.3 hPa | - | - | - | - |
| 1777719839 | 7.22° C | 40% | 1013 hPa | - | - | - | - |
| 1777717573 | 7.22° C | 42% | 1013 hPa | - | - | - | - |
| 1777716232 | 7.22° C | 42% | 1012.7 hPa | - | - | - | - |
| 1777714153 | 7.78° C | 40% | 1012.7 hPa | - | - | - | - |
| 1777713707 | 7.78° C | 40% | 1012 hPa | - | - | - | - |
| 1777712632 | 7.78° C | 40% | 1012.5 hPa | - | - | - | - |
| 1777711036 | 7.78° C | 38% | 1012.5 hPa | - | - | - | - |
| 1777709031 | 7.78° C | 38% | 1012.4 hPa | - | - | - | - |
| 1777707424 | 7.78° C | 38% | 1012.4 hPa | - | - | - | - |
| 1777706068 | 7.78° C | 38% | 1012 hPa | - | - | - | - |
* Rain since midnight (hover to see other rain measurements)
** Current wind speed in m/s (hover to see current wind gust speed)